{"data":{"norad_id":53161,"intl_designator":"2022-083AF","name":"STARLINK-4055","alt_names":[],"object_type":"PAYLOAD","status":"ACTIVE","operator":null,"country":"US","launch_date":"2022-07-17","launch_site_code":"AFETR","launch_vehicle":null,"mission":null,"orbit_class":"UNKNOWN","rcs_meters":null,"size_class":null,"mass_kg":null,"dimensions":null,"purposes":["comms"],"wikipedia_slug":null,"has_3d_model":false,"image_url":null,"decayed_at":null,"tle_current":{"epoch":"2026-05-24T19:22:48.836352Z","epoch_age_seconds":94793,"freshness":"FRESH","line1":"1 53161U 22083AF  26144.80750968 -.00000195  00000+0  58576-5 0  9992","line2":"2 53161  53.2136 182.4163 0001005  76.1816 283.9288 15.08834626212859","mean_motion":15.08834626,"eccentricity":0.0001005,"inclination_deg":53.2136,"raan_deg":182.4163,"arg_perigee_deg":76.1816,"mean_anomaly_deg":283.9288,"bstar":5.8576e-6,"rev_number":21285,"period_min":95.437894596674,"perigee_km":539.06456655103,"apogee_km":540.45506381088,"semimajor_km":6917.896815181,"source":"CELESTRAK","updated_at":"2026-05-25T13:38:17.321528Z"}}}